sat.trackr.live / text

‹ back to catalog

ONEWEB-0228

NORAD 48780 · 2021-045P

PAYLOAD ACTIVE UNKNOWN

§ Identity

Operator
Country
UK
Launch date
2021-05-28
Launch site
VOSTO
Launch vehicle
Mass (kg)
RCS (m²)

Purposes: comms

External: N2YO · Heavens-Above · Gunter

§ Orbital elements

Epoch: 2026-09-03T10:25:16.140576Z

Period
109.46 min
Inclination
87.8971°
Eccentricity
0.0002059
Mean motion
13.15549701 rev/d
Perigee alt
1,200.2 km
Apogee alt
1,203.3 km
Semi-major
7,579.9 km
B*
3.2634e-4
RAAN
243.5902°
Arg perigee
86.6196°
Mean anomaly
273.5170°
Rev number
25,461

§ Raw data

ONEWEB-02281 48780U 21045P   26246.43421459  .00000136  00000+0  32634-3 0  99912 48780  87.8971 243.5902 0002059  86.6196 273.5170 13.15549701254615

JSON: /api/v1/satellites/48780 · /tle

For live sub-satellite position, see the globe view (requires WebGL).

§ Visibility from observer

Set your observer location to see the next 7 days of passes ≥ 10°. The values pass through the URL so the page stays shareable.

No JS? Fill the form by hand. The geolocation button needs JavaScript.